Tracking 25734 objects as of 27-May-2022
HD Live streaming from Space Station
objects crossing your sky now

BEIDOU 2 G8

Track BEIDOU 2 G8 now!
BEIDOU 2 G8 is classified as:


NORAD ID: 44231
Int'l Code: 2019-027A
Perigee: 35,776.7 km
Apogee: 35,811.9 km
Inclination: 0.8 °
Period: 1,436.1 minutes
Semi major axis: 42165 km
RCS: Unknown
Launch date: May 17, 2019
Source: People's Republic of China (PRC)
Launch site: Xichang Space Center, China (XSC)
aabbcc
Your satellite tracking list
Your tracking list is empty




NASA's NSSDC Master Catalog

Two Line Element Set (TLE):
1 44231U 19027A   22146.64918332 -.00000248  00000-0  00000-0 0  9999
2 44231   0.8108  75.0398 0004176 116.0314  71.3576  1.00269727 11206
Source of the keplerian elements: AFSPC